sat.trackr.live / text

‹ back to catalog

JILIN-1 05

NORAD 43023 · 2017-074B

PAYLOAD ACTIVE UNKNOWN

§ Identity

Operator
Country
PRC
Launch date
2017-11-21
Launch site
TAISC
Launch vehicle
Mass (kg)
RCS (m²)

External: N2YO · Heavens-Above · Gunter

§ Orbital elements

Epoch: 2026-05-25T05:17:16.270080Z

Period
93.90 min
Inclination
97.4839°
Eccentricity
0.0003991
Mean motion
15.33466989 rev/d
Perigee alt
462.7 km
Apogee alt
468.2 km
Semi-major
6,843.6 km
B*
2.4653e-4
RAAN
251.0739°
Arg perigee
320.6171°
Mean anomaly
39.4780°
Rev number
47,048

§ Raw data

JILIN-1 051 43023U 17074B   26145.22032720  .00007896  00000+0  24653-3 0  99992 43023  97.4839 251.0739 0003991 320.6171  39.4780 15.33466989470481

JSON: /api/v1/satellites/43023 · /tle

For live sub-satellite position, see the globe view (requires WebGL).

§ Visibility from observer

Set your observer location to see the next 7 days of passes ≥ 10°. The values pass through the URL so the page stays shareable.

No JS? Fill the form by hand. The geolocation button needs JavaScript.

§ Radio — SatNOGS DB

ModeDescriptionDownlinkUplink
BPSK Telemetry 2.228 GHz

1 transmitter · refreshed weekly from db.satnogs.org